WGS F7 (USA 263)

Last updated on Fri Jul 11 2025 00:02:44 GMT+0000 (Coordinated Universal Time)

1 40746U 15036A 25191.53794666 .00000030 00000+0 00000+0 0 9991 2 40746 0.0096 28.5556 0000295 132.4945 136.3060 1.00271182 36441
UTC large
Height (km)
Speed (km/s)
/
Latitude / Longitude
Inclination (degrees)
Orbital Period (minutes)
Azimuth
Elevation
Range (km)
Doppler Factor

Next 0 passes for location: London (51.5072 / 0.1276)

Sorry there are no passes over London.